STARLINK-32023 (60197 NORAD) Tracking and Keplerian Element Data

This shows tracking and keplerian element data for the satellite.

Feedback or suggestion? Click here.




ElementValue
Catalog60197
NameSTARLINK-32023
Epoch Orbit1570
Epoch Day286.74676605
Epoch Year2024
RAAN189.1999
Inclination53.1576
Eccentricity0.0001308
Argument of Perigee73.5868
Mean Anonmoly286.528
Mean Motion15.38088902
Decay Rate0.00054791
L11 60197U 24124Q 24286.74676605 .00054791 00000+0 14401-2 0 9996
L22 60197 53.1576 189.1999 0001308 73.5868 286.5280 15.38088902 15705



Live tracking and technical data element details for STARLINK-32023 (NORAD 60197). STARLINK-32023 can be tracked NOW for your location showing map with azimuth and elevation plus other details from your city location.







IsCatalogInMostPopularTable: catalog: 60197, numindb: 12
Update: records affected: 1



GetName: 60197 STARLINK-32023

Hit Count: updated at: Thu, 23 Jan 2025 14:14:04 GMT